GW5620 Weather Reports


time (UTC)temp
C
wind
direction
speed
KPH
gust
KPH
rain 1hr
cm
rain 24hr
cm
rain mn
cm
humidity
%
barometer
mb
20260507140507 12 37 4.8 11.3 0.00 0.20 0.00 47 1012.0
20260507140007 12 328 3.2 12.9 0.00 0.23 0.00 47 1012.1
20260507135007 12 327 0.0 0.0 0.00 0.28 0.00 49 1012.3
20260507134507 12 334 0.0 0.0 0.00 0.36 0.00 50 1012.4
20260507134007 12 304 0.0 1.6 0.00 0.41 0.00 50 1012.5
20260507133506 11 328 0.0 0.0 0.00 0.41 0.00 52 1012.5
20260507133007 11 285 1.6 4.8 0.00 0.41 0.00 52 1012.5
20260507132506 11 345 0.0 4.8 0.00 0.43 0.00 52 1012.4
20260507132007 11 27 3.2 11.3 0.00 0.43 0.00 52 1012.5
20260507131508 11 14 6.4 14.5 0.00 0.43 0.00 52 1012.5
20260507130507 11 328 0.0 4.8 0.00 0.46 0.00 52 1012.5
20260507130007 11 338 0.0 0.0 0.00 0.48 0.00 54 1012.5
20260507125507 11 319 0.0 0.0 0.00 0.51 0.00 54 1012.5
20260507125007 11 309 0.0 0.0 0.00 0.51 0.00 55 1012.5
20260507124506 11 21 0.0 0.0 0.00 0.53 0.00 56 1012.4
20260507124007 11 334 0.0 0.0 0.00 0.53 0.00 55 1012.4
20260507123506 11 333 0.0 0.0 0.00 0.56 0.00 54 1012.3
20260507123006 10 26 0.0 0.0 0.00 0.56 0.00 55 1012.2
20260507122507 10 359 0.0 0.0 0.00 0.56 0.00 56 1012.2
20260507121506 10 315 0.0 0.0 0.00 0.56 0.00 56 1012.2
20260507121007 10 328 0.0 0.0 0.00 0.56 0.00 56 1012.2
20260507120007 10 332 0.0 0.0 0.00 0.58 0.00 57 1012.2
20260507115507 10 332 0.0 0.0 0.00 0.58 0.00 57 1012.2
20260507115007 10 5 0.0 0.0 0.00 0.58 0.00 56 1012.3
20260507114506 10 322 0.0 0.0 0.00 0.58 0.00 57 1012.2
20260507114006 10 328 0.0 0.0 0.00 0.61 0.00 58 1012.3
20260507113506 10 331 0.0 0.0 0.00 0.61 0.00 57 1012.3
20260507113006 10 330 0.0 0.0 0.00 0.61 0.00 57 1012.3
20260507112507 10 5 0.0 0.0 0.00 0.64 0.00 57 1012.2
20260507111507 10 340 0.0 0.0 0.00 0.64 0.00 57 1012.1
20260507111006 10 342 0.0 1.6 0.00 0.66 0.00 58 1012.1
20260507110506 10 313 0.0 0.0 0.00 0.69 0.00 59 1012.1
20260507110006 10 313 0.0 0.0 0.00 0.69 0.00 58 1011.9
20260507105506 10 313 0.0 0.0 0.00 0.69 0.00 59 1011.8
20260507105006 10 313 0.0 0.0 0.00 0.71 0.00 58 1011.7
20260507104506 10 313 0.0 0.0 0.00 0.71 0.00 58 1011.7
20260507104006 10 313 0.0 0.0 0.00 0.71 0.00 58 1011.6
20260507103506 10 313 0.0 0.0 0.00 0.71 0.00 59 1011.6
20260507103006 10 313 0.0 0.0 0.00 0.71 0.00 57 1011.5
20260507102506 10 313 0.0 0.0 0.00 0.71 0.00 57 1011.5
20260507102007 10 313 0.0 0.0 0.00 0.71 0.00 58 1011.4
20260507101507 10 313 0.0 0.0 0.00 0.71 0.00 57 1011.3
20260507101006 10 313 0.0 0.0 0.00 0.71 0.00 57 1011.2
20260507100506 10 345 0.0 0.0 0.00 0.71 0.00 58 1011.2
20260507095505 10 355 0.0 0.0 0.00 0.71 0.00 57 1011.1
20260507095006 10 355 0.0 0.0 0.00 0.71 0.00 57 1011.1
20260507094505 10 355 0.0 0.0 0.00 0.71 0.00 56 1011.1
20260507094006 10 331 0.0 3.2 0.00 0.71 0.00 56 1011.1
20260507093507 10 332 0.0 0.0 0.00 0.71 0.00 57 1011.2
20260507092506 10 331 0.0 0.0 0.00 0.71 0.00 57 1011.2
20260507092006 10 329 0.0 0.0 0.00 0.71 0.00 58 1011.2
20260507091505 10 336 0.0 0.0 0.00 0.71 0.00 59 1011.2
20260507091006 10 313 0.0 0.0 0.00 0.71 0.00 59 1011.0
20260507090507 10 302 0.0 4.8 0.00 0.71 0.00 60 1011.0
20260507090006 10 5 0.0 0.0 0.00 0.71 0.00 61 1010.9
20260507085505 10 5 0.0 0.0 0.00 0.71 0.00 61 1010.9
20260507084506 10 5 0.0 0.0 0.00 0.71 0.00 62 1010.8
20260507084006 10 5 0.0 0.0 0.00 0.71 0.00 62 1010.7
20260507083506 10 5 0.0 0.0 0.00 0.71 0.00 62 1010.7
20260507083006 10 14 0.0 4.8 0.00 0.71 0.00 62 1010.8
20260507082506 10 14 0.0 4.8 0.00 0.71 0.00 62 1010.7
20260507082006 10 14 0.0 4.8 0.00 0.71 0.00 62 1010.7
20260507081505 10 13 3.2 4.8 0.00 0.71 0.00 62 1010.6
20260507080506 11 20 1.6 8.0 0.00 0.71 0.00 63 1010.4
20260507080006 11 5 3.2 8.0 0.00 0.71 0.00 66 1010.3
20260507075506 11 10 4.8 12.9 0.00 0.71 0.00 67 1010.3
20260507074505 11 23 0.0 0.0 0.00 0.71 0.00 70 1010.3
20260507074006 11 10 0.0 0.0 0.00 0.71 0.00 71 1010.4
20260507073505 11 23 1.6 12.9 0.00 0.71 0.00 72 1010.4
20260507073005 11 6 3.2 9.7 0.00 0.71 0.00 73 1010.3
20260507072006 11 342 0.0 0.0 0.00 0.71 0.00 76 1010.6
20260507071505 11 342 0.0 0.0 0.00 0.71 0.00 76 1010.5
20260507070505 11 342 0.0 0.0 0.00 0.71 0.00 75 1010.5
20260507070009 11 342 0.0 1.6 0.00 0.71 0.00 75 1010.6
20260507065505 11 342 0.0 3.2 0.00 0.71 0.00 75 1010.7
20260507064505 11 339 0.0 0.0 0.00 0.71 0.00 75 1010.6
20260507064005 11 339 0.0 0.0 0.00 0.71 0.00 74 1010.6
20260507063505 11 333 0.0 0.0 0.00 0.71 0.00 74 1010.6
20260507062505 11 328 0.0 0.0 0.00 0.71 0.00 73 1010.5
20260507061505 11 326 0.0 0.0 0.00 0.71 0.00 73 1010.6
20260507061005 11 325 0.0 0.0 0.00 0.71 0.00 73 1010.7
20260507060505 12 333 0.0 0.0 0.00 0.71 0.00 73 1010.8
20260507060005 12 340 1.6 4.8 0.00 0.71 0.00 73 1010.7
20260507055504 12 338 1.6 4.8 0.00 0.71 0.00 74 1010.6
20260507054505 12 305 0.0 12.9 0.00 0.71 0.00 73 1010.4
20260507054005 12 300 0.0 8.0 0.00 0.71 0.00 73 1010.4
20260507053505 12 327 1.6 4.8 0.00 0.71 0.00 73 1010.4
20260507053005 12 328 3.2 9.7 0.00 0.71 0.00 73 1010.4
20260507052505 12 332 3.2 8.0 0.00 0.71 0.00 74 1010.3
20260507051505 12 10 3.2 12.9 0.00 0.71 0.00 75 1010.3
20260507051005 12 336 4.8 9.7 0.00 0.71 0.00 75 1010.2
20260507050505 12 341 3.2 4.8 0.00 0.71 0.00 76 1010.1
20260507050005 12 317 1.6 14.5 0.00 0.71 0.00 76 1010.3
20260507045504 12 351 1.6 4.8 0.00 0.71 0.00 77 1010.4
20260507045005 12 353 1.6 4.8 0.00 0.71 0.00 77 1010.2
20260507044505 12 12 4.8 9.7 0.00 0.71 0.00 78 1010.2
20260507044005 12 344 1.6 4.8 0.00 0.71 0.00 79 1010.2
20260507042504 12 355 0.0 0.0 0.00 0.71 0.00 79 1010.5
20260507042004 12 355 1.6 4.8 0.00 0.71 0.00 79 1010.3
20260507041505 12 348 3.2 8.0 0.00 0.71 0.00 80 1010.3
20260507041004 12 349 1.6 9.7 0.00 0.71 0.00 81 1010.1
20260507040506 12 328 1.6 4.8 0.00 0.71 0.00 81 1010.2
20260507040004 12 318 3.2 8.0 0.00 0.71 0.00 82 1010.6
20260507035005 12 330 1.6 4.8 0.00 0.71 0.71 81 1010.3
20260507034505 12 332 0.0 1.6 0.00 0.71 0.71 81 1010.0
20260507033505 12 332 1.6 8.0 0.00 0.71 0.71 81 1009.9
20260507033005 12 324 1.6 4.8 0.00 0.71 0.71 80 1010.0
20260507032504 12 327 0.0 4.8 0.00 0.71 0.71 80 1010.0
20260507032005 12 331 1.6 4.8 0.00 0.71 0.71 80 1010.0
20260507031504 12 319 4.8 12.9 0.00 0.71 0.71 79 1010.1
20260507031004 12 335 3.2 12.9 0.00 0.71 0.71 79 1010.3
20260507030004 13 359 8.0 22.5 0.00 0.71 0.71 79 1010.1
20260507025504 13 318 8.0 14.5 0.00 0.71 0.71 79 1010.1
20260507025004 13 326 4.8 14.5 0.00 0.71 0.71 79 1010.2
20260507024504 13 317 6.4 14.5 0.00 0.71 0.71 79 1010.0
20260507024004 13 356 4.8 14.5 0.00 0.71 0.71 79 1009.8
20260507023504 13 26 3.2 8.0 0.00 0.71 0.71 79 1009.8
20260507023004 13 299 3.2 8.0 0.00 0.71 0.71 79 1009.8
20260507022504 13 314 3.2 8.0 0.00 0.71 0.71 79 1010.0
20260507022004 13 334 1.6 4.8 0.00 0.71 0.71 79 1009.7
20260507021504 13 337 3.2 8.0 0.00 0.71 0.71 79 1009.8
20260507021004 13 315 3.2 8.0 0.00 0.71 0.71 79 1009.8
20260507020504 13 325 1.6 9.7 0.00 0.71 0.71 78 1009.8
20260507020004 13 314 4.8 9.7 0.00 0.71 0.71 79 1009.7
20260507014004 14 333 1.6 16.1 0.00 0.71 0.71 78 1009.3
20260507013504 14 337 4.8 12.9 0.00 0.71 0.71 78 1009.4
20260507013005 14 347 4.8 14.5 0.00 0.71 0.71 78 1009.5
20260507012504 14 329 3.2 12.9 0.00 0.71 0.71 78 1009.5
20260507012004 15 329 8.0 19.3 0.00 0.71 0.71 79 1009.4
20260507011004 15 323 3.2 11.3 0.00 0.71 0.71 78 1009.2
20260507010005 15 346 1.6 4.8 0.00 0.71 0.71 79 1009.4
20260507005504 15 327 3.2 11.3 0.00 0.71 0.71 78 1009.6
20260507005004 15 292 0.0 3.2 0.00 0.71 0.71 78 1009.7
20260507004504 15 281 0.0 4.8 0.00 0.71 0.71 78 1009.5
20260507004004 15 282 0.0 8.0 0.00 0.71 0.71 78 1009.5
20260507003504 15 290 0.0 4.8 0.00 0.71 0.71 77 1009.3
20260507003004 15 302 3.2 14.5 0.00 0.71 0.71 77 1009.5
20260507002504 15 298 0.0 0.0 0.00 0.71 0.71 77 1009.5
20260507002004 15 329 3.2 12.9 0.00 0.71 0.71 76 1009.1
20260507001504 15 267 3.2 11.3 0.00 0.71 0.71 76 1009.1
20260507001004 15 292 3.2 11.3 0.00 0.71 0.71 76 1009.0
20260507000505 16 308 0.0 9.7 0.00 0.71 0.71 76 1009.0
20260507000004 16 272 1.6 14.5 0.00 0.71 0.71 77 1009.0
20260506235003 16 309 1.6 4.8 0.00 0.71 0.71 77 1008.7
20260506234503 16 302 1.6 11.3 0.00 0.71 0.71 77 1008.5
20260506233509 16 315 3.2 11.3 0.00 0.71 0.71 77 1008.0
20260506233008 16 310 3.2 8.0 0.00 0.71 0.71 78 1007.8
20260506232508 16 300 4.8 14.5 0.00 0.71 0.71 79 1008.0
20260506232008 16 332 1.6 14.5 0.00 0.71 0.71 80 1008.1
20260506231508 16 323 1.6 9.7 0.00 0.71 0.71 80 1008.0
20260506231009 16 351 4.8 16.1 0.00 0.71 0.71 80 1007.7
20260506230509 16 323 4.8 16.1 0.00 0.71 0.71 81 1007.8
20260506230009 16 310 4.8 16.1 0.00 0.71 0.71 82 1007.8
20260506225508 16 324 1.6 8.0 0.03 0.71 0.71 83 1007.7
20260506225009 16 320 4.8 16.1 0.03 0.71 0.71 84 1007.6
20260506224508 16 322 4.8 16.1 0.03 0.71 0.71 85 1007.6
20260506224009 17 321 8.0 19.3 0.03 0.71 0.71 86 1007.5
20260506223509 17 0 4.8 12.9 0.03 0.71 0.71 88 1007.4
20260506223008 17 337 1.6 4.8 0.05 0.71 0.71 89 1007.3
20260506222508 17 338 1.6 4.8 0.05 0.71 0.71 89 1007.3
20260506222008 17 278 3.2 4.8 0.05 0.71 0.71 88 1007.3
20260506221008 18 292 0.0 1.6 0.05 0.71 0.71 88 1007.0
20260506220508 18 292 0.0 3.2 0.05 0.71 0.71 87 1006.9
20260506220008 18 294 0.0 4.8 0.05 0.71 0.71 87 1007.0
20260506215508 18 300 0.0 3.2 0.03 0.69 0.69 87 1007.0
20260506214508 18 301 1.6 4.8 0.03 0.69 0.69 86 1007.1
20260506213509 18 216 1.6 11.3 0.03 0.69 0.69 86 1006.7
20260506212008 18 236 1.6 8.0 0.00 0.66 0.66 85 1006.6
20260506211507 18 253 1.6 8.0 0.00 0.66 0.66 84 1006.6
20260506211009 18 220 1.6 9.7 0.00 0.66 0.66 84 1006.4
20260506210508 18 259 3.2 12.9 0.00 0.66 0.66 84 1006.3
20260506210007 18 241 3.2 12.9 0.00 0.66 0.66 83 1006.2
20260506205508 18 227 1.6 4.8 0.00 0.66 0.66 83 1006.2
20260506205008 18 239 1.6 11.3 0.00 0.66 0.66 83 1006.1
20260506204507 18 234 1.6 4.8 0.00 0.66 0.66 84 1006.1
20260506204007 19 247 3.2 4.8 0.00 0.66 0.66 84 1006.0
20260506203508 19 196 4.8 12.9 0.00 0.66 0.66 84 1006.0
20260506203008 19 226 0.0 4.8 0.00 0.66 0.66 86 1006.0
20260506202508 19 226 1.6 12.9 0.00 0.66 0.66 86 1005.9
20260506201508 18 205 3.2 14.5 0.00 0.66 0.66 87 1006.0
20260506201008 18 202 3.2 8.0 0.00 0.66 0.66 86 1006.0
20260506200508 18 194 3.2 11.3 0.00 0.66 0.66 87 1006.0
20260506200007 18 212 3.2 8.0 0.00 0.66 0.66 87 1006.0
20260506195508 18 189 3.2 12.9 0.00 0.66 0.66 88 1006.0
20260506194508 18 230 1.6 11.3 0.00 0.66 0.66 88 1006.1
20260506194008 18 218 1.6 8.0 0.00 0.66 0.66 89 1006.1
20260506193508 18 229 0.0 8.0 0.00 0.66 0.66 89 1006.0
20260506193008 18 208 4.8 14.5 0.00 0.66 0.66 89 1006.1
20260506192508 18 215 0.0 0.0 0.00 0.66 0.66 90 1006.1
20260506192008 18 212 0.0 8.0 0.00 0.66 0.66 91 1005.9
20260506191508 18 229 3.2 9.7 0.00 0.66 0.66 91 1005.9
20260506191008 18 247 4.8 11.3 0.03 0.66 0.66 92 1006.0
20260506190509 18 230 0.0 4.8 0.03 0.66 0.66 91 1006.0
20260506190007 17 244 0.0 4.8 0.03 0.66 0.66 91 1006.1
20260506185507 17 259 1.6 12.9 0.03 0.66 0.66 90 1006.1
20260506185007 17 232 3.2 19.3 0.03 0.66 0.66 90 1006.3
20260506184008 17 223 3.2 4.8 0.03 0.66 0.66 89 1006.4
20260506183508 17 212 1.6 8.0 0.03 0.66 0.66 89 1006.5
20260506182507 17 225 0.0 9.7 0.03 0.66 0.66 88 1006.5
20260506182007 17 247 3.2 8.0 0.03 0.66 0.66 87 1006.6
20260506181008 17 268 0.0 8.0 0.00 0.64 0.64 86 1006.6
20260506180508 17 261 3.2 12.9 0.00 0.64 0.64 86 1006.5
20260506175007 17 235 8.0 16.1 0.00 0.64 0.64 85 1006.4
20260506174507 17 231 1.6 4.8 0.00 0.64 0.64 85 1006.3
20260506174007 17 239 3.2 11.3 0.00 0.64 0.64 85 1006.3
20260506173508 17 213 1.6 9.7 0.00 0.64 0.64 85 1006.3
20260506172508 17 274 3.2 12.9 0.00 0.64 0.64 85 1006.3
20260506172007 17 238 1.6 11.3 0.00 0.64 0.64 85 1006.2
20260506171507 17 251 6.4 12.9 0.00 0.64 0.64 85 1006.3
20260506171007 17 199 1.6 12.9 0.00 0.64 0.64 85 1006.3
20260506170507 17 226 1.6 19.3 0.00 0.64 0.64 86 1006.2
20260506170007 17 225 1.6 8.0 0.00 0.64 0.64 86 1006.2
20260506165507 17 175 3.2 14.5 0.00 0.64 0.64 86 1006.2
20260506165008 17 232 3.2 16.1 0.00 0.64 0.64 86 1006.2
20260506164507 17 200 4.8 12.9 0.00 0.64 0.64 86 1006.3
20260506164007 17 186 4.8 12.9 0.00 0.64 0.64 86 1006.3
20260506163507 17 233 4.8 14.5 0.00 0.64 0.64 87 1006.3
20260506163007 17 198 3.2 12.9 0.00 0.64 0.64 87 1006.3
20260506162507 17 231 6.4 16.1 0.00 0.64 0.64 88 1006.3
20260506162007 16 230 4.8 14.5 0.00 0.64 0.64 88 1006.3
20260506161507 16 251 3.2 9.7 0.00 0.64 0.64 88 1006.3
20260506161007 16 242 1.6 16.1 0.00 0.64 0.64 89 1006.2
20260506160507 16 225 4.8 16.1 0.00 0.64 0.64 89 1006.3
20260506160007 16 184 3.2 9.7 0.00 0.64 0.64 89 1006.3
20260506155507 16 203 4.8 14.5 0.00 0.64 0.64 89 1006.3
20260506155007 16 188 1.6 4.8 0.00 0.64 0.64 90 1006.3
20260506154507 16 166 4.8 11.3 0.00 0.64 0.64 89 1006.3
20260506154007 16 187 3.2 19.3 0.00 0.64 0.64 89 1006.4
20260506153507 16 162 3.2 19.3 0.00 0.64 0.64 90 1006.3
20260506153007 16 181 1.6 19.3 0.03 0.64 0.64 90 1006.2
20260506152508 16 197 6.4 14.5 0.03 0.64 0.64 90 1006.3
20260506145507 16 238 1.6 12.9 0.18 0.64 0.64 91 1006.1
20260506145007 16 147 3.2 11.3 0.20 0.64 0.64 91 1006.0
20260506143506 15 175 3.2 4.8 0.33 0.64 0.64 91 1006.5
20260506143007 15 182 1.6 4.8 0.30 0.61 0.61 90 1006.7
20260506142507 15 183 3.2 8.0 0.33 0.61 0.61 90 1006.8
20260506142006 15 232 0.0 11.3 0.30 0.58 0.58 90 1007.0
20260506141507 15 197 1.6 14.5 0.30 0.58 0.58 89 1007.2
20260506141007 15 199 1.6 11.3 0.25 0.53 0.53 89 1007.2